Showing default

TDRS 3, 19548

Orbit data source: Space-Track

TDRS 3, 19548 is a payload satellite owned by GSFC (US) in GEO that was launched on Thu, 29 Sep 1988 UTC via an SPACE SHUTTLE launch vehicle from the Air Force Eastern Test Range (AFETR). Payload-class satellites include a variety of spacecraft equipped with specific instruments for various scientific and technological missions. These include communications satellites like Starlink; space stations such as the ISS; scientific satellites like the Hubble; Earth observation satellites from companies like Planet Labs, Umbra, and HawkEye 360; GPS; miniature CubeSats for education and research; and military/defense satellites.

Loading next visibility...
Identifier
19548, 1988-091B
Orbit
GEO
Country
Flag of USUS
Related business
Manufacturer
TRW
Mission
Operational Civil Communications
Bus & Motor
TDRS, AOCS
Mass
2,103 kg wet, ~1,673 kg dry
Launch date (UTC)
1988-09-29 (37 years ago)
Launch vehicle
SPACE SHUTTLE
Launch site
Air Force Eastern Test Range (AFETR)
Object type
Payload
Rocket body
Debris
Shape & HBR
Hex Cyl + 2 Pan, 8.9 m
Radar Cross Section
13.873 m², Large (>1 m²)

Expand to show TLE details & history
Last TLE update: 4 days ago

TLE from 4 days ago
0 TDRS 3
1 19548U 88091B   26057.84610155 -.00000306  00000-0  00000+0 0  9992
2 19548  12.6852 341.7287 0044225 351.9002  78.3575  1.00261626124288
Epoch: 2026-02-26T20:18Z
TLE epoch observation values (Epoch: 2026-02-26T20:18:23.173Z)
Latitude
11.97023°
Longitude
-49.22456°
Altitude
35,751.528 km
Speed
3.077 km/s
True Right ascension
03h 28m 15s
True Declination
11° 57' 30"
Sunlit
Object was in daylight at epoch
Visualization orbit readout
Latitude
Unknown
Longitude
Unknown
Altitude
Unknown
Speed
Unknown
Apparent Right ascension
Unknown
Apparent Declination
Unknown
Sunlit
N/A
Visualization observer readout
Local Sidereal Time
07:19:26
Azimuth
Unknown
Elevation
Unknown
Doppler factor
Unknown
Orbital elements
Apogee altitude
35,976.928 km
Perigee altitude
35,603.947 km
Semi-major axis
42,168.575 km
Eccentricity
0.00442
Inclination
12.6852°
RAAN
341.7287°
Arg. of periapsis
351.9002°
True anomaly
78.8544°
Mean anomaly
78.3575°
Eccentric anomaly
78.6059°
Mean motion
0.25065 °/min
Orbital period
1,436.29 mins
BSTAR
0
Loading maneuver chart data...
Computing Atmospheric mass density...
Loading historical data...
Loading historical data...
Loading historical data...
Loading historical data...
Loading historical data...
Loading historical data...
Loading historical data...
Other satellites on launch #91 in the year 1988 (1988-09-29 UTC)

Documentation

Showing up to 5 results
|